QFA45M WADD-YPDN

Flight info

Callsign QFA45M
Flight time 2h 20m
Altitude 35000
Route LEDOM W33 KPG J199 IKUMA J61 PAGMI Y91 ANUPA
Aircraft A320/M-SDE3FGHIRWY/LB1

Departure

Time 2026-04-28 16:00
Airport Denpasar I Gusti Ngurah Rai International Airport (WADD)

Arrival

Time 2026-04-28 18:20
Airport Darwin International Airport / RAAF Darwin (YPDN)
Time Latitude Longitude Altitude Speed Heading
2026-04-28 15:45 -8.74555 115.16404 21 ft 0 kts 358°
2026-04-28 15:50 -8.74565 115.16404 22 ft 2 kts 356°
2026-04-28 15:51 -8.74581 115.16405 22 ft 2 kts 357°
2026-04-28 15:51 -8.74598 115.16407 23 ft 2 kts 354°
2026-04-28 15:51 -8.74614 115.16408 22 ft 2 kts 352°
2026-04-28 15:51 -8.74630 115.16411 22 ft 2 kts 349°
2026-04-28 15:52 -8.74646 115.16414 20 ft 2 kts 344°
2026-04-28 15:52 -8.74662 115.16419 21 ft 2 kts 334°
2026-04-28 15:52 -8.74676 115.16428 20 ft 2 kts 310°
2026-04-28 15:52 -8.74684 115.16442 23 ft 2 kts 273°
2026-04-28 15:53 -8.74684 115.16448 23 ft 0 kts 267°
2026-04-28 15:55 -8.74685 115.16427 21 ft 9 kts 267°
2026-04-28 15:55 -8.74690 115.16330 20 ft 19 kts 266°
2026-04-28 15:55 -8.74700 115.16178 19 ft 23 kts 266°
2026-04-28 15:55 -8.74708 115.16009 19 ft 25 kts 268°
2026-04-28 15:56 -8.74715 115.15829 19 ft 26 kts 268°
2026-04-28 15:56 -8.74722 115.15642 18 ft 25 kts 268°
2026-04-28 15:56 -8.74728 115.15472 18 ft 20 kts 269°
2026-04-28 15:56 -8.74747 115.15406 17 ft 10 kts 231°
2026-04-28 15:57 -8.74800 115.15390 17 ft 1 kts 181°
2026-04-28 15:57 -8.74802 115.15390 17 ft 1 kts 181°
2026-04-28 15:57 -8.74816 115.15390 17 ft 3 kts 181°
2026-04-28 15:57 -8.74843 115.15391 17 ft 5 kts 177°
2026-04-28 15:58 -8.74882 115.15394 17 ft 6 kts 169°
2026-04-28 15:58 -8.74897 115.15429 18 ft 6 kts 92°
2026-04-28 15:58 -8.74896 115.15461 18 ft 7 kts 85°
2026-04-28 15:58 -8.74893 115.15506 18 ft 0 kts 87°
2026-04-28 15:59 -8.74889 115.15601 18 ft 44 kts 88°
2026-04-28 15:59 -8.74868 115.16135 19 ft 105 kts 88°
2026-04-28 15:59 -8.74831 115.17034 21 ft 149 kts 88°
2026-04-28 16:00 -8.74778 115.18201 222 ft 170 kts 88°
2026-04-28 16:00 -8.74717 115.19366 918 ft 165 kts 87°
2026-04-28 16:00 -8.74674 115.20533 1488 ft 167 kts 88°
2026-04-28 16:00 -8.74634 115.21710 2023 ft 169 kts 87°
2026-04-28 16:01 -8.74592 115.22934 2355 ft 182 kts 87°
2026-04-28 16:01 -8.74543 115.24292 2546 ft 204 kts 88°
2026-04-28 16:01 -8.74483 115.25800 2737 ft 227 kts 87°
2026-04-28 16:01 -8.74413 115.27454 3008 ft 250 kts 88°
2026-04-28 16:02 -8.74337 115.29262 3568 ft 262 kts 88°
2026-04-28 16:02 -8.74259 115.31112 4348 ft 266 kts 88°
2026-04-28 16:02 -8.74183 115.32989 5121 ft 269 kts 87°
2026-04-28 16:02 -8.74106 115.34883 5879 ft 272 kts 88°
2026-04-28 16:03 -8.74027 115.36803 6632 ft 274 kts 88°
2026-04-28 16:03 -8.73946 115.38744 7335 ft 277 kts 87°
2026-04-28 16:03 -8.73864 115.40692 8037 ft 279 kts 87°
2026-04-28 16:03 -8.73781 115.42662 8737 ft 282 kts 87°
2026-04-28 16:04 -8.73698 115.44652 9424 ft 285 kts 87°
2026-04-28 16:04 -8.73617 115.46657 10076 ft 287 kts 87°
2026-04-28 16:04 -8.73589 115.48737 10302 ft 306 kts 94°
2026-04-28 16:04 -8.73972 115.50928 10448 ft 326 kts 106°
2026-04-28 16:05 -8.74884 115.53056 10850 ft 335 kts 120°
2026-04-28 16:05 -8.76188 115.55030 11371 ft 339 kts 123°
2026-04-28 16:05 -8.77510 115.56986 11930 ft 342 kts 123°
2026-04-28 16:05 -8.78868 115.59006 12502 ft 345 kts 123°
2026-04-28 16:06 -8.80206 115.61001 13077 ft 347 kts 123°
2026-04-28 16:06 -8.81567 115.63028 13636 ft 350 kts 123°
2026-04-28 16:06 -8.82938 115.65068 14125 ft 352 kts 123°
2026-04-28 16:06 -8.84321 115.67133 14606 ft 355 kts 123°
2026-04-28 16:07 -8.85712 115.69211 15083 ft 358 kts 123°
2026-04-28 16:07 -8.87112 115.71298 15557 ft 360 kts 123°
2026-04-28 16:07 -8.89953 115.75523 16487 ft 366 kts 123°
2026-04-28 16:08 -8.91393 115.77663 16954 ft 369 kts 123°
2026-04-28 16:08 -8.92843 115.79817 17417 ft 372 kts 123°
2026-04-28 16:08 -8.94165 115.82027 17867 ft 374 kts 114°
2026-04-28 16:09 -8.95701 115.87063 18699 ft 378 kts 103°
2026-04-28 16:09 -8.96341 115.89655 19090 ft 381 kts 103°
2026-04-28 16:09 -8.96988 115.92262 19472 ft 384 kts 103°
2026-04-28 16:10 -8.98306 115.97551 20294 ft 390 kts 103°
2026-04-28 16:10 -8.98972 116.00222 20697 ft 393 kts 103°
2026-04-28 16:10 -9.00322 116.05631 21482 ft 400 kts 103°
2026-04-28 16:11 -9.01690 116.11126 22263 ft 406 kts 103°
2026-04-28 16:11 -9.03083 116.16702 23021 ft 412 kts 103°
2026-04-28 16:12 -9.04495 116.22357 23690 ft 418 kts 103°
2026-04-28 16:12 -9.05207 116.25216 24008 ft 420 kts 103°
2026-04-28 16:13 -9.06630 116.30944 24591 ft 424 kts 104°
2026-04-28 16:13 -9.07353 116.33852 24894 ft 426 kts 103°
2026-04-28 16:13 -9.08810 116.39699 25492 ft 430 kts 104°
2026-04-28 16:14 -9.10279 116.45590 26066 ft 433 kts 104°
2026-04-28 16:14 -9.11752 116.51528 26617 ft 437 kts 104°
2026-04-28 16:15 -9.12761 116.57600 27174 ft 439 kts 90°
2026-04-28 16:15 -9.12656 116.60650 27458 ft 440 kts 87°
2026-04-28 16:15 -9.12514 116.63757 27732 ft 442 kts 88°
2026-04-28 16:16 -9.12244 116.69991 28236 ft 445 kts 88°
2026-04-28 16:16 -9.12110 116.73123 28504 ft 447 kts 88°
2026-04-28 16:17 -9.11835 116.79433 29024 ft 451 kts 88°
2026-04-28 16:17 -9.11694 116.82609 29281 ft 452 kts 88°
2026-04-28 16:17 -9.11548 116.85801 29535 ft 454 kts 88°
2026-04-28 16:17 -9.11402 116.88996 29865 ft 454 kts 87°
2026-04-28 16:18 -9.11259 116.92185 30196 ft 454 kts 87°
2026-04-28 16:18 -9.11118 116.95371 30516 ft 453 kts 87°
2026-04-28 16:18 -9.10981 116.98518 30821 ft 452 kts 87°
2026-04-28 16:18 -9.10838 117.01701 31139 ft 452 kts 87°
2026-04-28 16:19 -9.10702 117.04882 31459 ft 452 kts 89°
2026-04-28 16:19 -9.10889 117.08050 31733 ft 453 kts 98°
2026-04-28 16:19 -9.11455 117.11197 32011 ft 454 kts 100°
2026-04-28 16:19 -9.12045 117.14327 32325 ft 454 kts 100°
2026-04-28 16:20 -9.12636 117.17464 32651 ft 453 kts 100°
2026-04-28 16:20 -9.13224 117.20600 32978 ft 453 kts 99°
2026-04-28 16:20 -9.13812 117.23729 33301 ft 453 kts 99°
2026-04-28 16:20 -9.14396 117.26855 33631 ft 452 kts 100°
2026-04-28 16:21 -9.14978 117.29979 33927 ft 452 kts 99°
2026-04-28 16:21 -9.15559 117.33106 34173 ft 451 kts 100°
2026-04-28 16:21 -9.16137 117.36224 34445 ft 451 kts 99°
2026-04-28 16:21 -9.16715 117.39337 34684 ft 451 kts 99°
2026-04-28 16:22 -9.17291 117.42424 34856 ft 451 kts 100°
2026-04-28 16:22 -9.17880 117.45584 34910 ft 453 kts 99°
2026-04-28 16:22 -9.19057 117.51882 34914 ft 456 kts 100°
2026-04-28 16:23 -9.20227 117.58160 34914 ft 456 kts 99°
2026-04-28 16:23 -9.21393 117.64478 34914 ft 456 kts 99°
2026-04-28 16:24 -9.22530 117.70809 34917 ft 457 kts 99°
2026-04-28 16:24 -9.23627 117.77147 34923 ft 457 kts 97°
2026-04-28 16:25 -9.24718 117.83448 34926 ft 457 kts 99°
2026-04-28 16:25 -9.25821 117.89788 34925 ft 457 kts 99°
2026-04-28 16:26 -9.26933 117.96118 34926 ft 457 kts 99°
2026-04-28 16:26 -9.28041 118.02464 34922 ft 457 kts 99°
2026-04-28 16:27 -9.29141 118.08797 34914 ft 457 kts 98°
2026-04-28 16:28 -9.30784 118.18300 34926 ft 457 kts 98°
2026-04-28 16:28 -9.31888 118.24643 34922 ft 457 kts 99°
2026-04-28 16:29 -9.33537 118.34139 34925 ft 457 kts 98°
2026-04-28 16:30 -9.35175 118.43597 34932 ft 457 kts 99°
2026-04-28 16:30 -9.36277 118.49940 34930 ft 457 kts 99°
2026-04-28 16:31 -9.37381 118.56273 34930 ft 457 kts 98°
2026-04-28 16:31 -9.38471 118.62618 34930 ft 457 kts 98°
2026-04-28 16:32 -9.39555 118.68953 34933 ft 457 kts 99°
2026-04-28 16:32 -9.41193 118.78461 34937 ft 456 kts 99°
2026-04-28 16:33 -9.42098 118.83725 34938 ft 456 kts 98°
2026-04-28 16:33 -9.43364 118.91087 34936 ft 456 kts 99°
2026-04-28 16:34 -9.44449 118.97413 34938 ft 456 kts 99°
2026-04-28 16:34 -9.45532 119.03740 34944 ft 456 kts 99°
2026-04-28 16:35 -9.46618 119.10071 34939 ft 455 kts 99°
2026-04-28 16:35 -9.47695 119.16391 34941 ft 455 kts 99°
2026-04-28 16:36 -9.48775 119.22721 34943 ft 455 kts 99°
2026-04-28 16:36 -9.49859 119.29046 34944 ft 455 kts 99°
2026-04-28 16:37 -9.50938 119.35371 34944 ft 456 kts 99°
2026-04-28 16:38 -9.52539 119.44813 34949 ft 456 kts 99°
2026-04-28 16:38 -9.53620 119.51132 34953 ft 455 kts 99°
2026-04-28 16:39 -9.54700 119.57459 34956 ft 455 kts 99°
2026-04-28 16:39 -9.55774 119.63783 34961 ft 455 kts 98°
2026-04-28 16:40 -9.56842 119.70107 34963 ft 455 kts 98°
2026-04-28 16:40 -9.57912 119.76433 34966 ft 455 kts 99°
2026-04-28 16:41 -9.58975 119.82760 34974 ft 455 kts 98°
2026-04-28 16:41 -9.60044 119.89093 34973 ft 455 kts 99°
2026-04-28 16:42 -9.61102 119.95374 34972 ft 455 kts 99°
2026-04-28 16:42 -9.62168 120.01691 34970 ft 455 kts 99°
2026-04-28 16:43 -9.63236 120.08019 34966 ft 455 kts 99°
2026-04-28 16:43 -9.64296 120.14354 34966 ft 455 kts 99°
2026-04-28 16:44 -9.65353 120.20668 34964 ft 455 kts 99°
2026-04-28 16:44 -9.66411 120.26992 34962 ft 455 kts 99°
2026-04-28 16:45 -9.67458 120.33318 34961 ft 455 kts 99°
2026-04-28 16:45 -9.68425 120.39666 34961 ft 455 kts 97°
2026-04-28 16:46 -9.69355 120.45967 34957 ft 455 kts 98°
2026-04-28 16:46 -9.70298 120.52299 34945 ft 455 kts 98°
2026-04-28 16:47 -9.71252 120.58641 34948 ft 455 kts 98°
2026-04-28 16:47 -9.72218 120.64985 34944 ft 455 kts 98°
2026-04-28 16:48 -9.73175 120.71325 34943 ft 455 kts 98°
2026-04-28 16:48 -9.74128 120.77664 34944 ft 455 kts 98°
2026-04-28 16:49 -9.74920 120.82934 34940 ft 455 kts 98°
2026-04-28 16:49 -9.75873 120.89287 34937 ft 456 kts 98°
2026-04-28 16:50 -9.76829 120.95649 34940 ft 456 kts 98°
2026-04-28 16:50 -9.77786 121.02010 34945 ft 456 kts 98°
2026-04-28 16:51 -9.78738 121.08367 34945 ft 456 kts 98°
2026-04-28 16:51 -9.79688 121.14731 34945 ft 456 kts 98°
2026-04-28 16:52 -9.80629 121.21048 34945 ft 456 kts 98°
2026-04-28 16:52 -9.81577 121.27397 34948 ft 455 kts 98°
2026-04-28 16:53 -9.82523 121.33747 34953 ft 455 kts 98°
2026-04-28 16:53 -9.83461 121.40092 34950 ft 454 kts 98°
2026-04-28 16:54 -9.84400 121.46423 34949 ft 454 kts 97°
2026-04-28 16:54 -9.85339 121.52761 34949 ft 453 kts 98°
2026-04-28 16:55 -9.86279 121.59077 34946 ft 453 kts 98°
2026-04-28 16:55 -9.87208 121.65401 34947 ft 453 kts 98°
2026-04-28 16:56 -9.88129 121.71674 34944 ft 453 kts 98°
2026-04-28 16:56 -9.89066 121.77997 34943 ft 453 kts 98°
2026-04-28 16:57 -9.89993 121.84318 34950 ft 453 kts 97°
2026-04-28 16:57 -9.90924 121.90636 34948 ft 453 kts 98°
2026-04-28 16:58 -9.91857 121.96955 34951 ft 453 kts 98°
2026-04-28 16:58 -9.92786 122.03286 34951 ft 453 kts 98°
2026-04-28 16:59 -9.93706 122.09574 34949 ft 453 kts 98°
2026-04-28 16:59 -9.94631 122.15895 34948 ft 453 kts 98°
2026-04-28 17:00 -9.95554 122.22219 34945 ft 453 kts 98°
2026-04-28 17:00 -9.96482 122.28546 34944 ft 453 kts 98°
2026-04-28 17:01 -9.97406 122.34870 34947 ft 453 kts 98°
2026-04-28 17:01 -9.98323 122.41204 34947 ft 453 kts 98°
2026-04-28 17:02 -9.99244 122.47530 34948 ft 453 kts 98°
2026-04-28 17:02 -10.00161 122.53850 34950 ft 453 kts 98°
2026-04-28 17:03 -10.01537 122.63325 34947 ft 452 kts 98°
2026-04-28 17:03 -10.02448 122.69642 34943 ft 452 kts 98°
2026-04-28 17:04 -10.03818 122.79116 34941 ft 452 kts 98°
2026-04-28 17:05 -10.05181 122.88603 34941 ft 452 kts 98°
2026-04-28 17:06 -10.06539 122.98044 34938 ft 453 kts 98°
2026-04-28 17:06 -10.07904 123.07545 34941 ft 454 kts 98°
2026-04-28 17:07 -10.08803 123.13886 34942 ft 454 kts 98°
2026-04-28 17:07 -10.09709 123.20228 34944 ft 454 kts 97°
2026-04-28 17:08 -10.10620 123.26564 34946 ft 453 kts 98°
2026-04-28 17:08 -10.11531 123.32898 34948 ft 454 kts 98°
2026-04-28 17:09 -10.12438 123.39245 34941 ft 455 kts 98°
2026-04-28 17:09 -10.13334 123.45609 34937 ft 455 kts 98°
2026-04-28 17:10 -10.14229 123.51966 34935 ft 456 kts 98°
2026-04-28 17:10 -10.15142 123.58334 34932 ft 455 kts 98°
2026-04-28 17:11 -10.16044 123.64704 34932 ft 455 kts 98°
2026-04-28 17:11 -10.16905 123.71070 34930 ft 455 kts 96°
2026-04-28 17:12 -10.17473 123.77442 34957 ft 455 kts 94°
2026-04-28 17:12 -10.17903 123.83860 34961 ft 456 kts 94°
2026-04-28 17:13 -10.18372 123.90272 34964 ft 456 kts 94°
2026-04-28 17:13 -10.18897 123.96684 34966 ft 456 kts 94°
2026-04-28 17:14 -10.19436 124.03096 34969 ft 456 kts 95°
2026-04-28 17:14 -10.19959 124.09514 34966 ft 456 kts 94°
2026-04-28 17:15 -10.20469 124.15929 34970 ft 456 kts 94°
2026-04-28 17:15 -10.20987 124.22338 34970 ft 456 kts 94°
2026-04-28 17:16 -10.21496 124.28712 34970 ft 456 kts 95°
2026-04-28 17:16 -10.22010 124.35126 34967 ft 456 kts 94°
2026-04-28 17:17 -10.22522 124.41535 34966 ft 456 kts 95°
2026-04-28 17:17 -10.23035 124.47955 34960 ft 455 kts 95°
2026-04-28 17:18 -10.23540 124.54362 34959 ft 456 kts 95°
2026-04-28 17:18 -10.24055 124.60775 34957 ft 456 kts 95°
2026-04-28 17:19 -10.24565 124.67193 34958 ft 456 kts 95°
2026-04-28 17:19 -10.25071 124.73610 34965 ft 456 kts 95°
2026-04-28 17:20 -10.25491 124.78945 34964 ft 456 kts 95°
2026-04-28 17:20 -10.26080 124.86457 34963 ft 456 kts 95°
2026-04-28 17:21 -10.26574 124.92842 34962 ft 456 kts 95°
2026-04-28 17:22 -10.27324 125.02480 34961 ft 456 kts 95°
2026-04-28 17:22 -10.27825 125.08908 34959 ft 457 kts 95°
2026-04-28 17:23 -10.28578 125.18558 34959 ft 457 kts 95°
2026-04-28 17:23 -10.29074 125.24991 34959 ft 457 kts 95°
2026-04-28 17:24 -10.29571 125.31428 34959 ft 457 kts 95°
2026-04-28 17:24 -10.30066 125.37872 34958 ft 457 kts 95°
2026-04-28 17:25 -10.30798 125.47489 34957 ft 457 kts 95°
2026-04-28 17:26 -10.31291 125.53932 34958 ft 457 kts 95°
2026-04-28 17:26 -10.31780 125.60366 34963 ft 457 kts 95°
2026-04-28 17:27 -10.32263 125.66807 34965 ft 457 kts 95°
2026-04-28 17:27 -10.32753 125.73258 34964 ft 458 kts 95°
2026-04-28 17:28 -10.33237 125.79702 34967 ft 458 kts 95°
2026-04-28 17:28 -10.33966 125.89372 34972 ft 458 kts 95°
2026-04-28 17:29 -10.34448 125.95819 34973 ft 458 kts 95°
2026-04-28 17:30 -10.35168 126.05494 34974 ft 458 kts 95°
2026-04-28 17:30 -10.35882 126.15131 34974 ft 457 kts 94°
2026-04-28 17:31 -10.36589 126.24791 34971 ft 457 kts 95°
2026-04-28 17:32 -10.37301 126.34462 34960 ft 457 kts 95°
2026-04-28 17:32 -10.37768 126.40906 34963 ft 458 kts 95°
2026-04-28 17:33 -10.38240 126.47365 34967 ft 458 kts 95°
2026-04-28 17:33 -10.38558 126.51638 34964 ft 458 kts 95°
2026-04-28 17:34 -10.39180 126.60225 34961 ft 458 kts 95°
2026-04-28 17:34 -10.39648 126.66679 34962 ft 458 kts 95°
2026-04-28 17:35 -10.40111 126.73136 34964 ft 458 kts 95°
2026-04-28 17:35 -10.40575 126.79594 34961 ft 458 kts 95°
2026-04-28 17:36 -10.40958 126.84971 34962 ft 459 kts 94°
2026-04-28 17:36 -10.41427 126.91436 34967 ft 459 kts 95°
2026-04-28 17:37 -10.41896 126.97904 34970 ft 459 kts 95°
2026-04-28 17:37 -10.42359 127.04383 34969 ft 459 kts 94°
2026-04-28 17:38 -10.42884 127.10840 34965 ft 459 kts 100°
2026-04-28 17:38 -10.44860 127.16951 34968 ft 456 kts 119°
2026-04-28 17:39 -10.47909 127.22592 34972 ft 456 kts 120°
2026-04-28 17:40 -10.52466 127.31076 34973 ft 456 kts 119°
2026-04-28 17:40 -10.55485 127.36704 34973 ft 456 kts 120°
2026-04-28 17:41 -10.58532 127.42372 34977 ft 456 kts 120°
2026-04-28 17:41 -10.61574 127.48034 34976 ft 457 kts 120°
2026-04-28 17:42 -10.64616 127.53707 34978 ft 456 kts 120°
2026-04-28 17:42 -10.67652 127.59377 34974 ft 457 kts 120°
2026-04-28 17:43 -10.70691 127.65052 34971 ft 457 kts 120°
2026-04-28 17:43 -10.73736 127.70722 34975 ft 457 kts 119°
2026-04-28 17:44 -10.76774 127.76387 34979 ft 456 kts 120°
2026-04-28 17:44 -10.79796 127.82027 34976 ft 456 kts 120°
2026-04-28 17:45 -10.82825 127.87700 34975 ft 456 kts 119°
2026-04-28 17:45 -10.85848 127.93376 34978 ft 456 kts 120°
2026-04-28 17:46 -10.88888 127.99049 34978 ft 456 kts 120°
2026-04-28 17:46 -10.91922 128.04715 34976 ft 456 kts 120°
2026-04-28 17:47 -10.94944 128.10389 34976 ft 456 kts 119°
2026-04-28 17:47 -10.97962 128.16060 34974 ft 456 kts 120°
2026-04-28 17:48 -11.00996 128.21743 34971 ft 456 kts 120°
2026-04-28 17:48 -11.04020 128.27411 34972 ft 456 kts 120°
2026-04-28 17:49 -11.07026 128.33061 34971 ft 456 kts 119°
2026-04-28 17:49 -11.10049 128.38740 34971 ft 456 kts 120°
2026-04-28 17:50 -11.13072 128.44416 34970 ft 456 kts 119°
2026-04-28 17:50 -11.16091 128.50102 34970 ft 456 kts 119°
2026-04-28 17:51 -11.19112 128.55781 34970 ft 456 kts 120°
2026-04-28 17:51 -11.22131 128.61468 34972 ft 456 kts 120°
2026-04-28 17:52 -11.24681 128.67372 34976 ft 458 kts 105°
2026-04-28 17:52 -11.26774 128.76867 34966 ft 458 kts 103°
2026-04-28 17:53 -11.28161 128.83213 34960 ft 458 kts 103°
2026-04-28 17:53 -11.29551 128.89556 34960 ft 459 kts 103°
2026-04-28 17:54 -11.30925 128.95861 34959 ft 459 kts 103°
2026-04-28 17:54 -11.32311 129.02205 34959 ft 459 kts 103°
2026-04-28 17:55 -11.33695 129.08562 34964 ft 459 kts 103°
2026-04-28 17:55 -11.34382 129.11726 34761 ft 455 kts 103°
2026-04-28 17:55 -11.35063 129.14872 34534 ft 451 kts 103°
2026-04-28 17:56 -11.35735 129.17985 34303 ft 449 kts 103°
2026-04-28 17:56 -11.36407 129.21090 34040 ft 448 kts 103°
2026-04-28 17:56 -11.37078 129.24185 33610 ft 445 kts 103°
2026-04-28 17:56 -11.37745 129.27253 33179 ft 442 kts 103°
2026-04-28 17:57 -11.38405 129.30298 32753 ft 439 kts 103°
2026-04-28 17:57 -11.39063 129.33328 32331 ft 436 kts 103°
2026-04-28 17:57 -11.39715 129.36331 31924 ft 433 kts 103°
2026-04-28 17:57 -11.40362 129.39312 31525 ft 430 kts 104°
2026-04-28 17:58 -11.41006 129.42274 31126 ft 427 kts 104°
2026-04-28 17:58 -11.41638 129.45188 30734 ft 424 kts 104°
2026-04-28 17:58 -11.42280 129.48154 30340 ft 422 kts 104°
2026-04-28 17:58 -11.42902 129.51032 29951 ft 419 kts 104°
2026-04-28 17:59 -11.43526 129.53921 29501 ft 417 kts 103°
2026-04-28 17:59 -11.44148 129.56801 29058 ft 415 kts 103°
2026-04-28 17:59 -11.44768 129.59667 28664 ft 412 kts 103°
2026-04-28 17:59 -11.45380 129.62511 28283 ft 409 kts 103°
2026-04-28 18:00 -11.45986 129.65338 27907 ft 407 kts 103°
2026-04-28 18:00 -11.46592 129.68153 27513 ft 405 kts 103°
2026-04-28 18:00 -11.47196 129.70947 27105 ft 404 kts 103°
2026-04-28 18:00 -11.47801 129.73750 26685 ft 403 kts 103°
2026-04-28 18:01 -11.48404 129.76545 26261 ft 403 kts 103°
2026-04-28 18:01 -11.49002 129.79333 25831 ft 403 kts 103°
2026-04-28 18:01 -11.49599 129.82128 25389 ft 403 kts 103°
2026-04-28 18:01 -11.50191 129.84910 24954 ft 403 kts 103°
2026-04-28 18:02 -11.50835 129.87660 24496 ft 403 kts 109°
2026-04-28 18:02 -11.51973 129.90255 24053 ft 401 kts 122°
2026-04-28 18:02 -11.53635 129.92504 23673 ft 397 kts 134°
2026-04-28 18:02 -11.55689 129.94379 23294 ft 393 kts 141°
2026-04-28 18:03 -11.57765 129.96167 22865 ft 388 kts 140°
2026-04-28 18:03 -11.59802 129.97941 22165 ft 381 kts 140°
2026-04-28 18:03 -11.61773 129.99667 21739 ft 367 kts 140°
2026-04-28 18:03 -11.63675 130.01332 21300 ft 354 kts 140°
2026-04-28 18:04 -11.65511 130.02939 20891 ft 342 kts 140°
2026-04-28 18:04 -11.67291 130.04496 20490 ft 332 kts 140°
2026-04-28 18:04 -11.69019 130.06006 20101 ft 322 kts 140°
2026-04-28 18:04 -11.70726 130.07494 19719 ft 323 kts 140°
2026-04-28 18:05 -11.72433 130.08982 19321 ft 324 kts 140°
2026-04-28 18:05 -11.73571 130.09975 19070 ft 324 kts 140°
2026-04-28 18:05 -11.75871 130.11980 18548 ft 325 kts 140°
2026-04-28 18:05 -11.77591 130.13479 18134 ft 326 kts 140°
2026-04-28 18:06 -11.79317 130.14984 17707 ft 325 kts 140°
2026-04-28 18:06 -11.81033 130.16482 17310 ft 324 kts 141°
2026-04-28 18:06 -11.82742 130.17975 16918 ft 323 kts 141°
2026-04-28 18:06 -11.84448 130.19467 16530 ft 322 kts 141°
2026-04-28 18:07 -11.86149 130.20956 16141 ft 322 kts 141°
2026-04-28 18:07 -11.87845 130.22437 15750 ft 321 kts 141°
2026-04-28 18:07 -11.89544 130.23920 15359 ft 321 kts 141°
2026-04-28 18:07 -11.91241 130.25402 14968 ft 321 kts 141°
2026-04-28 18:08 -11.92940 130.26883 14575 ft 321 kts 141°
2026-04-28 18:08 -11.94618 130.28347 14196 ft 321 kts 141°
2026-04-28 18:08 -11.96316 130.29831 13810 ft 322 kts 141°
2026-04-28 18:08 -11.98020 130.31321 13366 ft 322 kts 141°
2026-04-28 18:09 -11.99717 130.32806 12981 ft 321 kts 141°
2026-04-28 18:09 -12.01405 130.34284 12580 ft 320 kts 141°
2026-04-28 18:09 -12.03093 130.35761 12212 ft 318 kts 141°
2026-04-28 18:09 -12.04767 130.37226 11827 ft 317 kts 140°
2026-04-28 18:10 -12.06451 130.38698 11444 ft 316 kts 140°
2026-04-28 18:10 -12.08123 130.40158 11060 ft 316 kts 140°
2026-04-28 18:10 -12.09788 130.41613 10675 ft 315 kts 140°
2026-04-28 18:10 -12.11451 130.43066 10291 ft 314 kts 140°
2026-04-28 18:11 -12.13094 130.44505 10136 ft 305 kts 140°
2026-04-28 18:11 -12.14685 130.45901 9884 ft 300 kts 140°
2026-04-28 18:11 -12.16257 130.47280 9323 ft 296 kts 139°
2026-04-28 18:11 -12.17814 130.48646 8856 ft 294 kts 139°
2026-04-28 18:12 -12.19336 130.49980 8558 ft 290 kts 139°
2026-04-28 18:12 -12.20867 130.51322 8263 ft 287 kts 139°
2026-04-28 18:12 -12.22379 130.52661 7904 ft 286 kts 136°
2026-04-28 18:12 -12.23643 130.54186 7579 ft 279 kts 126°
2026-04-28 18:13 -12.24781 130.55778 7101 ft 273 kts 126°
2026-04-28 18:13 -12.25877 130.57321 6745 ft 263 kts 125°
2026-04-28 18:13 -12.26934 130.58811 6422 ft 258 kts 125°
2026-04-28 18:13 -12.27987 130.60294 6084 ft 253 kts 124°
2026-04-28 18:14 -12.29000 130.61717 5758 ft 242 kts 125°
2026-04-28 18:14 -12.29974 130.63085 5545 ft 234 kts 124°
2026-04-28 18:14 -12.30925 130.64422 5292 ft 231 kts 124°
2026-04-28 18:14 -12.31867 130.65747 4992 ft 230 kts 124°
2026-04-28 18:15 -12.32806 130.67070 4694 ft 229 kts 124°
2026-04-28 18:15 -12.33744 130.68388 4377 ft 229 kts 125°
2026-04-28 18:15 -12.34678 130.69700 4064 ft 227 kts 125°
2026-04-28 18:15 -12.35572 130.70998 3678 ft 221 kts 119°
2026-04-28 18:16 -12.36144 130.72406 3320 ft 214 kts 109°
2026-04-28 18:16 -12.36641 130.73860 2774 ft 216 kts 110°
2026-04-28 18:16 -12.37127 130.75281 2388 ft 203 kts 110°
2026-04-28 18:16 -12.37576 130.76594 2147 ft 186 kts 110°
2026-04-28 18:17 -12.37984 130.77790 1872 ft 169 kts 110°
2026-04-28 18:17 -12.38348 130.78865 1679 ft 152 kts 110°
2026-04-28 18:17 -12.38686 130.79868 1464 ft 147 kts 111°
2026-04-28 18:17 -12.39018 130.80850 1280 ft 145 kts 110°
2026-04-28 18:18 -12.39338 130.81822 1073 ft 144 kts 110°
2026-04-28 18:18 -12.39661 130.82778 903 ft 141 kts 111°
2026-04-28 18:18 -12.39973 130.83722 729 ft 139 kts 110°
2026-04-28 18:18 -12.40181 130.84338 591 ft 139 kts 112°
2026-04-28 18:19 -12.40610 130.85583 358 ft 140 kts 111°
2026-04-28 18:19 -12.40929 130.86511 165 ft 140 kts 110°
2026-04-28 18:19 -12.41230 130.87395 100 ft 113 kts 109°
2026-04-28 18:19 -12.41432 130.87992 98 ft 64 kts 109°
2026-04-28 18:20 -12.41558 130.88368 94 ft 50 kts 109°
2026-04-28 18:20 -12.41668 130.88686 97 ft 45 kts 109°
2026-04-28 18:20 -12.41765 130.88972 100 ft 41 kts 109°
2026-04-28 18:20 -12.41859 130.89241 99 ft 38 kts 109°
2026-04-28 18:21 -12.41925 130.89410 98 ft 13 kts 152°
2026-04-28 18:21 -12.42023 130.89399 96 ft 14 kts 199°
2026-04-28 18:21 -12.42031 130.89396 96 ft 0 kts 199°
2026-04-28 18:23 -12.42059 130.89386 93 ft 10 kts 199°
2026-04-28 18:23 -12.42143 130.89275 92 ft 19 kts 268°
2026-04-28 18:23 -12.42119 130.89187 95 ft 19 kts 288°
2026-04-28 18:23 -12.42074 130.89054 97 ft 21 kts 289°
2026-04-28 18:24 -12.42024 130.88903 96 ft 24 kts 289°
2026-04-28 18:24 -12.41987 130.88793 97 ft 26 kts 289°
2026-04-28 18:24 -12.41901 130.88541 95 ft 30 kts 289°
2026-04-28 18:24 -12.41838 130.88348 96 ft 29 kts 290°
2026-04-28 18:25 -12.41769 130.88147 96 ft 31 kts 289°
2026-04-28 18:25 -12.41715 130.87980 99 ft 22 kts 284°
2026-04-28 18:25 -12.41663 130.87829 100 ft 23 kts 289°
2026-04-28 18:26 -12.41559 130.87525 104 ft 13 kts 290°
2026-04-28 18:26 -12.41513 130.87462 105 ft 12 kts 332°
2026-04-28 18:26 -12.41423 130.87456 104 ft 15 kts 16°
2026-04-28 18:26 -12.41312 130.87491 102 ft 19 kts 18°
2026-04-28 18:27 -12.41181 130.87538 101 ft 21 kts 18°
2026-04-28 18:27 -12.41036 130.87590 97 ft 17 kts 19°
2026-04-28 18:27 -12.40956 130.87650 94 ft 14 kts 41°
2026-04-28 18:27 -12.40885 130.87678 91 ft 6 kts 18°
2026-04-28 18:28 -12.40877 130.87681 91 ft 0 kts 17°
2026-04-28 18:31 -12.40876 130.87681 91 ft 0 kts 17°